This is the latest recevied weather packets stored in our database for station/object DB5WY-13. If no packets are shown the sender has not sent any weather packets the latest 10 day(s).
| Time | Temp. | Humidity | Pressure | Rain* | Wind** | Luminosity | Snow |
|---|---|---|---|---|---|---|---|
| 1777584618 | 8.89° C | 52% | 1028.2 hPa | 0 mm | - | - | - |
| 1777584018 | 8.89° C | 51% | 1028.1 hPa | 0 mm | - | - | - |
| 1777583418 | 8.89° C | 51% | 1028.2 hPa | 0 mm | - | - | - |
| 1777582818 | 8.89° C | 50% | 1028.3 hPa | 0 mm | - | - | - |
| 1777582218 | 8.89° C | 50% | 1028.3 hPa | 0 mm | - | - | - |
| 1777581618 | 8.89° C | 48% | 1028.2 hPa | 0 mm | - | - | - |
| 1777581018 | 8.89° C | 48% | 1028.3 hPa | 0 mm | - | - | - |
| 1777580418 | 9.44° C | 46% | 1028.4 hPa | 0 mm | - | - | - |
| 1777579818 | 9.44° C | 46% | 1028.3 hPa | 0 mm | - | - | - |
| 1777579218 | 9.44° C | 46% | 1028.2 hPa | 0 mm | - | - | - |
| 1777578618 | 9.44° C | 45% | 1028.2 hPa | 0 mm | - | - | - |
| 1777578018 | 9.44° C | 43% | 1028 hPa | 0 mm | - | - | - |
| 1777577418 | 9.44° C | 43% | 1028.1 hPa | 0 mm | - | - | - |
| 1777576818 | 9.44° C | 41% | 1027.9 hPa | 0 mm | - | - | - |
| 1777576218 | 9.44° C | 41% | 1027.8 hPa | 0 mm | - | - | - |
| 1777575618 | 10.56° C | 39% | 1027.7 hPa | 0 mm | - | - | - |
| 1777575018 | 11.11° C | 37% | 1027.6 hPa | 0 mm | - | - | - |
| 1777574418 | 11.67° C | 35% | 1027.6 hPa | 0 mm | - | - | - |
| 1777573818 | 12.22° C | 34% | 1027.5 hPa | 0 mm | - | - | - |
| 1777573218 | 12.78° C | 34% | 1027.2 hPa | 0 mm | - | - | - |
| 1777572618 | 12.78° C | 33% | 1027.3 hPa | 0 mm | - | - | - |
| 1777572018 | 12.78° C | 32% | 1027 hPa | 0 mm | - | - | - |
| 1777571418 | 13.33° C | 31% | 1027.2 hPa | 0 mm | - | - | - |
| 1777570818 | 13.33° C | 31% | 1027.3 hPa | 0 mm | - | - | - |
| 1777570218 | 13.89° C | 31% | 1027.1 hPa | 0 mm | - | - | - |
* Rain latest hour (hover to see other rain measurements)
** Current wind speed in m/s (hover to see current wind gust speed)